CSB0107 EPGD-EPWR

Flight info

Callsign CSB0107
Flight time 0h 46m
Altitude 32000
Route IRLUN N133 BIBKA DCT UVIVI
Aircraft A320/M-SDE3FGHIRWY/LB1

Departure

Time 2026-05-06 16:04
Airport Gdańsk Lech Wałęsa Airport (EPGD)

Arrival

Time 2026-05-06 16:50
Airport Copernicus Wrocław Airport (EPWR)
Time Latitude Longitude Altitude Speed Heading
2026-05-06 15:36 54.38146 18.46503 460 ft 0 kts 23°
2026-05-06 15:55 54.38131 18.46493 458 ft 4 kts 14°
2026-05-06 15:56 54.38106 18.46491 457 ft 4 kts 335°
2026-05-06 15:56 54.38092 18.46512 458 ft 0 kts 293°
2026-05-06 15:59 54.38093 18.46510 458 ft 2 kts 293°
2026-05-06 15:59 54.38110 18.46441 459 ft 9 kts 293°
2026-05-06 15:59 54.38131 18.46357 459 ft 6 kts 293°
2026-05-06 15:59 54.38156 18.46258 458 ft 10 kts 293°
2026-05-06 16:00 54.38175 18.46179 458 ft 6 kts 292°
2026-05-06 16:00 54.38176 18.46125 459 ft 4 kts 241°
2026-05-06 16:00 54.38137 18.46084 459 ft 7 kts 206°
2026-05-06 16:00 54.38105 18.46042 458 ft 6 kts 233°
2026-05-06 16:01 54.38099 18.45972 459 ft 7 kts 277°
2026-05-06 16:01 54.38135 18.45826 455 ft 15 kts 292°
2026-05-06 16:01 54.38151 18.45712 455 ft 7 kts 261°
2026-05-06 16:01 54.38134 18.45659 455 ft 4 kts 230°
2026-05-06 16:02 54.38114 18.45639 455 ft 4 kts 206°
2026-05-06 16:02 54.38062 18.45601 455 ft 9 kts 203°
2026-05-06 16:02 54.38032 18.45579 455 ft 5 kts 199°
2026-05-06 16:02 54.38016 18.45590 455 ft 1 kts 144°
2026-05-06 16:03 54.38007 18.45612 455 ft 4 kts 120°
2026-05-06 16:03 54.37996 18.45664 456 ft 10 kts 111°
2026-05-06 16:03 54.37912 18.46010 457 ft 63 kts 112°
2026-05-06 16:03 54.37661 18.47039 456 ft 121 kts 113°
2026-05-06 16:04 54.37280 18.48577 681 ft 145 kts 108°
2026-05-06 16:04 54.36897 18.50148 1402 ft 143 kts 107°
2026-05-06 16:04 54.36507 18.51702 2115 ft 141 kts 110°
2026-05-06 16:04 54.36089 18.53384 2393 ft 165 kts 112°
2026-05-06 16:05 54.35617 18.55279 2738 ft 183 kts 113°
2026-05-06 16:05 54.35090 18.57386 3051 ft 203 kts 115°
2026-05-06 16:05 54.34508 18.59710 3466 ft 220 kts 116°
2026-05-06 16:05 54.33890 18.62184 4071 ft 230 kts 118°
2026-05-06 16:06 54.33188 18.64680 4735 ft 234 kts 133°
2026-05-06 16:06 54.31904 18.66212 5329 ft 225 kts 172°
2026-05-06 16:06 54.30352 18.66020 5776 ft 234 kts 203°
2026-05-06 16:06 54.28797 18.64926 6418 ft 246 kts 206°
2026-05-06 16:07 54.27222 18.63740 7261 ft 249 kts 206°
2026-05-06 16:07 54.25622 18.62555 8126 ft 253 kts 202°
2026-05-06 16:07 54.23878 18.61934 8980 ft 261 kts 187°
2026-05-06 16:07 54.22044 18.61884 9839 ft 265 kts 185°
2026-05-06 16:08 54.20147 18.61860 10286 ft 284 kts 185°
2026-05-06 16:08 54.18091 18.61838 10553 ft 306 kts 184°
2026-05-06 16:08 54.15928 18.61820 11149 ft 314 kts 185°
2026-05-06 16:08 54.13721 18.61806 11861 ft 319 kts 185°
2026-05-06 16:09 54.11487 18.61793 12605 ft 323 kts 185°
2026-05-06 16:09 54.09226 18.61779 13361 ft 327 kts 185°
2026-05-06 16:09 54.06938 18.61761 14025 ft 331 kts 185°
2026-05-06 16:09 54.04622 18.61738 14656 ft 335 kts 185°
2026-05-06 16:10 54.02276 18.61713 15299 ft 339 kts 185°
2026-05-06 16:10 53.99904 18.61690 15953 ft 343 kts 185°
2026-05-06 16:10 53.97507 18.61666 16586 ft 346 kts 185°
2026-05-06 16:10 53.95087 18.61643 17225 ft 350 kts 185°
2026-05-06 16:11 53.92641 18.61622 17871 ft 353 kts 185°
2026-05-06 16:11 53.90174 18.61605 18438 ft 356 kts 185°
2026-05-06 16:11 53.87686 18.61590 19010 ft 359 kts 185°
2026-05-06 16:11 53.85179 18.61570 19588 ft 361 kts 185°
2026-05-06 16:12 53.82663 18.61549 20158 ft 363 kts 185°
2026-05-06 16:12 53.80131 18.61530 20761 ft 365 kts 185°
2026-05-06 16:12 53.77579 18.61518 21314 ft 368 kts 184°
2026-05-06 16:12 53.75004 18.61992 21871 ft 377 kts 173°
2026-05-06 16:13 53.72505 18.63316 22409 ft 387 kts 162°
2026-05-06 16:13 53.70026 18.65127 22956 ft 390 kts 162°
2026-05-06 16:13 53.67497 18.66975 23461 ft 392 kts 162°
2026-05-06 16:13 53.65020 18.68780 23894 ft 395 kts 162°
2026-05-06 16:14 53.62493 18.70620 24330 ft 397 kts 163°
2026-05-06 16:14 53.59951 18.72468 24741 ft 399 kts 163°
2026-05-06 16:14 53.57398 18.74317 25148 ft 401 kts 163°
2026-05-06 16:14 53.54827 18.76171 25545 ft 403 kts 163°
2026-05-06 16:15 53.52238 18.78011 25931 ft 403 kts 166°
2026-05-06 16:15 53.49546 18.79499 26265 ft 403 kts 169°
2026-05-06 16:15 53.46857 18.80919 26622 ft 406 kts 169°
2026-05-06 16:15 53.44157 18.82340 26993 ft 408 kts 169°
2026-05-06 16:16 53.41440 18.83770 27378 ft 410 kts 169°
2026-05-06 16:16 53.38709 18.85206 27744 ft 412 kts 169°
2026-05-06 16:16 53.35964 18.86646 28074 ft 415 kts 169°
2026-05-06 16:16 53.33202 18.88092 28399 ft 418 kts 169°
2026-05-06 16:17 53.30420 18.89550 28731 ft 420 kts 169°
2026-05-06 16:17 53.27624 18.91014 29056 ft 422 kts 170°
2026-05-06 16:17 53.24821 18.92478 29373 ft 423 kts 170°
2026-05-06 16:17 53.21967 18.93532 29674 ft 417 kts 179°
2026-05-06 16:18 53.19132 18.93749 29965 ft 410 kts 188°
2026-05-06 16:18 53.16326 18.93135 30218 ft 405 kts 198°
2026-05-06 16:18 53.13652 18.91750 30457 ft 402 kts 206°
2026-05-06 16:18 53.11074 18.89950 30689 ft 403 kts 206°
2026-05-06 16:19 53.08485 18.88147 30918 ft 404 kts 206°
2026-05-06 16:19 53.05887 18.86350 31183 ft 404 kts 206°
2026-05-06 16:19 53.03290 18.84562 31500 ft 403 kts 206°
2026-05-06 16:19 53.00696 18.82780 31714 ft 403 kts 206°
2026-05-06 16:20 52.98144 18.81027 31743 ft 392 kts 206°
2026-05-06 16:20 52.95645 18.79311 31750 ft 387 kts 206°
2026-05-06 16:20 52.90698 18.75909 31752 ft 384 kts 206°
2026-05-06 16:21 52.85763 18.72524 31753 ft 384 kts 206°
2026-05-06 16:21 52.80828 18.69155 31753 ft 384 kts 206°
2026-05-06 16:22 52.75892 18.65789 31744 ft 384 kts 206°
2026-05-06 16:22 52.70957 18.62428 31744 ft 384 kts 206°
2026-05-06 16:23 52.66019 18.59083 31744 ft 384 kts 206°
2026-05-06 16:23 52.61081 18.55743 31745 ft 384 kts 206°
2026-05-06 16:24 52.56143 18.52417 31744 ft 383 kts 206°
2026-05-06 16:24 52.51205 18.49100 31731 ft 383 kts 206°
2026-05-06 16:25 52.46268 18.45793 31737 ft 383 kts 206°
2026-05-06 16:25 52.41331 18.42480 31739 ft 383 kts 206°
2026-05-06 16:26 52.36395 18.39179 31741 ft 383 kts 206°
2026-05-06 16:26 52.31457 18.35876 31742 ft 384 kts 206°
2026-05-06 16:27 52.28982 18.34225 31395 ft 384 kts 205°
2026-05-06 16:27 52.26524 18.32598 30878 ft 379 kts 205°
2026-05-06 16:27 52.24098 18.30994 30387 ft 374 kts 205°
2026-05-06 16:27 52.21700 18.29409 29900 ft 370 kts 205°
2026-05-06 16:28 52.19330 18.27845 29369 ft 365 kts 205°
2026-05-06 16:28 52.16995 18.26304 28910 ft 359 kts 205°
2026-05-06 16:28 52.14698 18.24784 28447 ft 354 kts 205°
2026-05-06 16:28 52.12428 18.23286 27980 ft 349 kts 205°
2026-05-06 16:29 52.10189 18.21810 27529 ft 345 kts 205°
2026-05-06 16:29 52.07979 18.20355 27098 ft 341 kts 205°
2026-05-06 16:29 52.05793 18.18916 26673 ft 337 kts 205°
2026-05-06 16:29 52.03628 18.17492 26256 ft 333 kts 205°
2026-05-06 16:30 52.01491 18.16086 25848 ft 330 kts 205°
2026-05-06 16:30 52.00086 18.15162 25582 ft 327 kts 205°
2026-05-06 16:30 51.97280 18.13326 25069 ft 324 kts 205°
2026-05-06 16:30 51.95195 18.11966 24685 ft 322 kts 205°
2026-05-06 16:31 51.93122 18.10619 24292 ft 321 kts 205°
2026-05-06 16:31 51.91054 18.09274 23922 ft 320 kts 205°
2026-05-06 16:31 51.89022 18.07944 23545 ft 319 kts 205°
2026-05-06 16:31 51.86943 18.06584 23121 ft 317 kts 205°
2026-05-06 16:32 51.84902 18.05253 22710 ft 316 kts 205°
2026-05-06 16:32 51.82897 18.03944 22340 ft 315 kts 205°
2026-05-06 16:32 51.80845 18.02606 21952 ft 313 kts 205°
2026-05-06 16:32 51.78829 18.01299 21563 ft 311 kts 205°
2026-05-06 16:33 51.76852 18.00020 21172 ft 309 kts 205°
2026-05-06 16:33 51.74858 17.98732 20789 ft 308 kts 205°
2026-05-06 16:33 51.72875 17.97453 20394 ft 306 kts 205°
2026-05-06 16:34 51.68940 17.94913 19612 ft 303 kts 205°
2026-05-06 16:34 51.66986 17.93654 19217 ft 302 kts 204°
2026-05-06 16:34 51.65041 17.92401 18827 ft 300 kts 204°
2026-05-06 16:34 51.63105 17.91156 18436 ft 299 kts 204°
2026-05-06 16:35 51.61176 17.89917 18051 ft 298 kts 204°
2026-05-06 16:35 51.59274 17.88624 17624 ft 295 kts 209°
2026-05-06 16:35 51.57546 17.86875 17215 ft 292 kts 218°
2026-05-06 16:35 51.55944 17.84890 16820 ft 290 kts 218°
2026-05-06 16:36 51.54341 17.82923 16421 ft 289 kts 218°
2026-05-06 16:36 51.52746 17.80974 16036 ft 288 kts 218°
2026-05-06 16:36 51.51154 17.79035 15651 ft 287 kts 218°
2026-05-06 16:36 51.49565 17.77106 15266 ft 286 kts 218°
2026-05-06 16:37 51.47978 17.75177 14884 ft 286 kts 218°
2026-05-06 16:37 51.46396 17.73246 14493 ft 286 kts 218°
2026-05-06 16:37 51.44814 17.71317 14115 ft 286 kts 218°
2026-05-06 16:37 51.43230 17.69389 13728 ft 286 kts 218°
2026-05-06 16:38 51.41645 17.67463 13302 ft 286 kts 218°
2026-05-06 16:38 51.40061 17.65541 12912 ft 285 kts 218°
2026-05-06 16:38 51.38482 17.63627 12519 ft 284 kts 218°
2026-05-06 16:38 51.36908 17.61725 12135 ft 283 kts 217°
2026-05-06 16:39 51.35340 17.59831 11727 ft 282 kts 218°
2026-05-06 16:39 51.33778 17.57943 11330 ft 282 kts 218°
2026-05-06 16:39 51.32212 17.56061 10932 ft 281 kts 216°
2026-05-06 16:39 51.30507 17.54528 10422 ft 287 kts 205°
2026-05-06 16:40 51.28645 17.53259 9957 ft 289 kts 204°
2026-05-06 16:40 51.26827 17.52043 9835 ft 278 kts 204°
2026-05-06 16:40 51.25066 17.50871 9648 ft 270 kts 204°
2026-05-06 16:40 51.23332 17.49716 9404 ft 270 kts 204°
2026-05-06 16:41 51.21604 17.48562 9124 ft 268 kts 204°
2026-05-06 16:41 51.19888 17.47415 8838 ft 267 kts 204°
2026-05-06 16:41 51.18175 17.46271 8567 ft 267 kts 204°
2026-05-06 16:41 51.16469 17.45133 8291 ft 265 kts 204°
2026-05-06 16:42 51.14767 17.43997 8017 ft 265 kts 204°
2026-05-06 16:42 51.13073 17.42864 7740 ft 264 kts 204°
2026-05-06 16:42 51.11380 17.41735 7533 ft 263 kts 204°
2026-05-06 16:42 51.09689 17.40610 7391 ft 264 kts 204°
2026-05-06 16:43 51.07998 17.39484 7154 ft 262 kts 204°
2026-05-06 16:43 51.06321 17.38364 6883 ft 261 kts 204°
2026-05-06 16:43 51.04657 17.37233 6605 ft 259 kts 205°
2026-05-06 16:43 51.03031 17.36007 6317 ft 259 kts 207°
2026-05-06 16:44 51.01421 17.34734 6019 ft 257 kts 207°
2026-05-06 16:44 50.99847 17.33469 5728 ft 250 kts 209°
2026-05-06 16:44 50.98557 17.31732 5449 ft 243 kts 236°
2026-05-06 16:44 50.98063 17.29228 5179 ft 240 kts 268°
2026-05-06 16:45 50.98489 17.26695 4910 ft 240 kts 294°
2026-05-06 16:45 50.99238 17.24358 4637 ft 236 kts 292°
2026-05-06 16:45 50.99949 17.22022 4373 ft 234 kts 292°
2026-05-06 16:45 51.00661 17.19714 4110 ft 232 kts 292°
2026-05-06 16:46 51.01130 17.18201 3937 ft 231 kts 292°
2026-05-06 16:46 51.01836 17.15928 3705 ft 227 kts 293°
2026-05-06 16:46 51.02531 17.13684 3571 ft 227 kts 293°
2026-05-06 16:46 51.03228 17.11435 3317 ft 226 kts 292°
2026-05-06 16:47 51.03919 17.09202 3026 ft 225 kts 292°
2026-05-06 16:47 51.04606 17.06978 2731 ft 223 kts 292°
2026-05-06 16:47 51.05288 17.04771 2441 ft 222 kts 292°
2026-05-06 16:47 51.05962 17.02588 2136 ft 216 kts 292°
2026-05-06 16:48 51.06602 17.00517 1864 ft 201 kts 292°
2026-05-06 16:48 51.07198 16.98582 1631 ft 188 kts 292°
2026-05-06 16:48 51.07753 16.96780 1379 ft 174 kts 292°
2026-05-06 16:48 51.08257 16.95144 1158 ft 156 kts 292°
2026-05-06 16:49 51.08707 16.93682 966 ft 142 kts 292°
2026-05-06 16:49 51.09130 16.92281 798 ft 137 kts 292°
2026-05-06 16:49 51.09541 16.90955 600 ft 134 kts 293°
2026-05-06 16:49 51.09947 16.89620 433 ft 134 kts 294°
2026-05-06 16:50 51.10320 16.88393 406 ft 104 kts 296°
2026-05-06 16:50 51.10564 16.87607 401 ft 55 kts 296°
2026-05-06 16:50 51.10638 16.87373 402 ft 14 kts 297°
2026-05-06 16:50 51.10678 16.87257 402 ft 9 kts 309°
2026-05-06 16:51 51.10722 16.87247 404 ft 5 kts 19°
2026-05-06 16:51 51.10755 16.87269 403 ft 5 kts 24°
2026-05-06 16:51 51.10786 16.87292 400 ft 5 kts 25°
2026-05-06 16:51 51.10817 16.87316 403 ft 7 kts 26°
2026-05-06 16:52 51.10885 16.87371 400 ft 12 kts 27°
2026-05-06 16:52 51.10946 16.87430 403 ft 9 kts 53°
2026-05-06 16:52 51.10937 16.87511 401 ft 7 kts 115°
2026-05-06 16:52 51.10917 16.87576 403 ft 6 kts 117°
2026-05-06 16:53 51.10899 16.87632 403 ft 5 kts 117°
2026-05-06 16:53 51.10892 16.87679 403 ft 3 kts 69°
2026-05-06 16:53 51.10908 16.87693 403 ft 2 kts 24°
2026-05-06 16:53 51.10924 16.87705 403 ft 4 kts 25°
2026-05-06 16:54 51.10945 16.87721 403 ft 3 kts 26°
2026-05-06 16:54 51.10948 16.87723 403 ft 0 kts 26°